Location: Cornospital
(48.0620°N, 3.3837°W)
Time: 21:08:04
(UTC+00:00)

Cosmos 1605 Rocket - Pass Details

Date: 17 June 2021
Orbit: 944 x 1006 km, 82.9° (Epoch: 02 August)

Event Time Altitude Azimuth Distance (km) Brightness Sun altitude
Rises 20:54:42 0° 349° (NNW) 3,748 8.1 -5.7°
Reaches altitude 10° 20:57:16 10° 347° (NNW) 2,793 7.4 -6.0°
Maximum altitude 21:03:39 70° 265° (W) 1,063 4.4 -6.7°
Drops below altitude 10° 21:09:56 10° 183° (S) 2,754 6.0 -7.4°
Sets 21:12:27 0° 182° (S) 3,691 6.6 -7.7°
